Retour au catalogue

STARLINK-31217

ActifCommunicationsVLEO
NORAD 59036·PAYLOAD·🇺🇸 United States

Lancé Feb 25, 2024 depuis Cape Canaveral Space Force Station

Loading…

Prochains Passages (prochaines 24 heures)

TLE

FraisSource: CelesTrak SupGP

Époque: Sep 14, 2026, 22:20 UTC

1 59036C 24038P   26257.93104167  .00006871  00000+0  24896-3 0  2573
2 59036  43.0003 300.4820 0001521 265.7735  49.5145 15.27563986    17

Suivez STARLINK-31217 en temps réel avec AllMySat

Download on the App Store